Simultaneous Nadir Overpasses (SNOs) Predictions

Prediction of SNOs between FY3D and LANDSAT-8 Satellite Orbit:

Table of predicted SNOs for the next 14.0 days since TLE Epoch: 11/26/2022
Index Date (FY3D) Time (FY3D) Lat,Lon (FY3D) SZA (FY3D ) Date (LANDSAT-8) Time (LANDSAT-8) Lat,Lon (LANDSAT-8) SZA (LANDSAT-8 ) Distance(km) Time Diff (sec)
1 11/28/2022 12:43:39 -72.39, 168.98 86.34 11/28/2022 12:44:22 -72.36, 168.93 86.37 3.31 43
2 11/28/2022 13:34:25 72.31, -23.57 93.60 11/28/2022 13:33:48 72.33, -23.48 93.61 3.31 37
3 12/01/2022 04:11:00 72.37, 117.21 94.08 12/01/2022 04:11:23 72.39, 117.22 94.10 2.07 23
4 12/01/2022 05:01:43 -72.30, -75.34 85.99 12/01/2022 05:00:52 -72.32, -75.26 85.97 3.48 51
5 12/03/2022 18:47:43 72.83,-102.87 94.92 12/03/2022 18:48:53 72.70,-101.60 94.80 44.51 70
6 12/03/2022 19:38:18 -72.36, 65.43 85.55 12/03/2022 19:38:27 -72.37, 65.42 85.54 1.19 9
7 12/03/2022 20:29:04 72.29,-127.12 94.39 12/03/2022 20:27:54 72.27,-127.10 94.37 1.79 70
8 12/06/2022 10:14:54 -72.47,-153.90 85.11 12/06/2022 10:16:01 -72.45,-153.82 85.12 3.45 67
9 12/06/2022 11:05:39 72.35, 13.63 94.79 12/06/2022 11:05:28 72.36, 13.65 94.79 0.69 11
10 12/06/2022 11:56:14 -71.87,-178.11 85.69 12/06/2022 11:55:04 -71.92,-179.49 85.66 47.80 70
11 12/09/2022 01:42:13 72.42, 154.38 95.14 12/09/2022 01:43:01 72.43, 154.38 95.14 0.28 48
12 12/09/2022 02:32:56 -72.35, -38.15 84.94 12/09/2022 02:32:30 -72.37, -38.09 84.92 3.29 26



Historial Predications of SNOs between FY3D and LANDSAT-8
